Weather History for Taylorville, IL

Change the Weather History Date:

Monday, July 15, 2013

  Actual Average (KSPI) Record (KSPI)
Temperature  
Mean Temperature 80 °F 76 °F  
Max Temperature 89 °F 86 °F 107 °F (1936)
Min Temperature 71 °F 66 °F 52 °F (1930)
Degree Days  
Heating Degree Days 0 0  
Month to date heating degree days 0  
Since 1 June heating degree days 15  
Since 1 July heating degree days 0  
Cooling Degree Days 15 11  
Month to date cooling degree days 165  
Year to date cooling degree days 509  
Since 1 June cooling degree days 405  
Growing Degree Days 30 (Base 50)    
Moisture  
Dew Point 71 °F    
Average Humidity 76    
Maximum Humidity 94    
Minimum Humidity 52    
Precipitation  
Precipitation 0.00 in 0.14 in 2.72 in (1934)
Month to date precipitation 1.96  
Year to date precipitation 20.43  
Snow  
Snow 0.00 in 0.00 in 0.00 in ()
Month to date snowfall 0.0  
Since 1 June snowfall 0.0  
Since 1 July snowfall 0.0  
Snow Depth -    
Sea Level Pressure  
Sea Level Pressure 30.21 in    
Wind  
Wind Speed 4 mph (SE)    
Max Wind Speed 10 mph    
Max Gust Speed -    
Visibility 10 miles    
Events Rain    
T = Trace of Precipitation, MM = Missing Value Source: NWS Daily Summary

Daily Weather History Graph

Daily Weather History Graph

Search for Another Location

Airport:

Trip Planner

Search our weather history database for the weather conditions in past years. The results will help you decide how hot, cold, wet, or windy it might be!

Date:

Astronomy

Jul. 15, 2013 Rise Set
Actual Time 5:42 AM CDT 8:23 PM CDT
Civil Twilight 5:11 AM CDT 8:55 PM CDT
Nautical Twilight 4:31 AM CDT 9:34 PM CDT
Astronomical Twilight 3:47 AM CDT 10:18 PM CDT
Moon 1:00 PM CDT (7/15) No Moon Set
Length of Visible Light 15h 43m
Length of Day
14h 40m
Waxing Crescent, 45% of the Moon is Illuminated
Jul 15
Waxing Crescent
Jul 15
First Quarter
Jul 22
Full
Jul 29
Last Quarter
Aug 6
New

Hourly Weather History & Observations

Time (CDT) Temp. Heat Index Dew Point Humidity Pressure Visibility Wind Dir Wind Speed Gust Speed Precip Events Conditions
12:15 AM 73.4 °F - 69.8 °F 88% 30.17 in 10.0 mi East 4.6 mph - N/A   Clear
12:35 AM 75.2 °F - 71.6 °F 89% 30.17 in 10.0 mi East 4.6 mph - N/A   Clear
12:55 AM 73.4 °F - 69.8 °F 88% 30.16 in 10.0 mi ESE 5.8 mph - N/A   Clear
1:15 AM 73.4 °F - 69.8 °F 88% 30.16 in 10.0 mi ESE 5.8 mph - N/A   Clear
1:35 AM 73.4 °F - 69.8 °F 88% 30.17 in 10.0 mi ESE 4.6 mph - N/A   Clear
1:55 AM 73.4 °F - 69.8 °F 88% 30.16 in 10.0 mi ESE 5.8 mph - N/A   Clear
2:15 AM 73.4 °F - 69.8 °F 88% 30.16 in 10.0 mi ESE 4.6 mph - N/A   Clear
2:35 AM 73.4 °F - 69.8 °F 88% 30.16 in 10.0 mi ESE 4.6 mph - N/A   Clear
2:55 AM 73.4 °F - 69.8 °F 88% 30.16 in 10.0 mi SE 3.5 mph - N/A   Clear
3:15 AM 73.4 °F - 69.8 °F 88% 30.16 in 10.0 mi SE 4.6 mph - N/A   Clear
3:35 AM 73.4 °F - 69.8 °F 88% 30.16 in 10.0 mi SE 6.9 mph - N/A   Clear
3:55 AM 73.4 °F - 69.8 °F 88% 30.17 in 10.0 mi SE 4.6 mph - N/A   Clear
4:15 AM 71.6 °F - 69.8 °F 94% 30.17 in 10.0 mi East 3.5 mph - N/A   Clear
4:35 AM 71.6 °F - 69.8 °F 94% 30.17 in 10.0 mi ESE 3.5 mph - N/A   Clear
4:55 AM 71.6 °F - 69.8 °F 94% 30.18 in 10.0 mi Calm Calm - N/A   Clear
5:15 AM 71.6 °F - 69.8 °F 94% 30.18 in 10.0 mi ESE 3.5 mph - N/A   Clear
5:35 AM 71.6 °F - 69.8 °F 94% 30.19 in 10.0 mi Calm Calm - N/A   Clear
5:55 AM 71.6 °F - 69.8 °F 94% 30.20 in 10.0 mi Calm Calm - N/A   Clear
6:15 AM 71.6 °F - 69.8 °F 94% 30.20 in 10.0 mi East 5.8 mph - N/A   Clear
6:35 AM 73.4 °F - 69.8 °F 88% 30.21 in 10.0 mi Calm Calm - N/A   Clear
6:55 AM 73.4 °F - 69.8 °F 88% 30.21 in 10.0 mi Calm Calm - N/A   Clear
7:15 AM 75.2 °F - 71.6 °F 89% 30.22 in 10.0 mi ESE 4.6 mph - N/A   Clear
7:35 AM 77.0 °F - 69.8 °F 78% 30.22 in 10.0 mi ESE 5.8 mph - N/A   Clear
7:55 AM 78.8 °F - 69.8 °F 74% 30.23 in 10.0 mi ESE 5.8 mph - N/A   Clear
8:15 AM 78.8 °F - 71.6 °F 78% 30.23 in 10.0 mi SE 5.8 mph - N/A   Clear
8:35 AM 80.6 °F 84.6 °F 71.6 °F 74% 30.23 in 10.0 mi SSE 6.9 mph - N/A   Clear
8:55 AM 80.6 °F 84.6 °F 71.6 °F 74% 30.24 in 10.0 mi South 4.6 mph - N/A   Clear
9:15 AM 82.4 °F 87.2 °F 71.6 °F 70% 30.24 in 10.0 mi South 5.8 mph - N/A   Clear
9:35 AM 82.4 °F 87.2 °F 71.6 °F 70% 30.24 in 10.0 mi South 5.8 mph - N/A   Clear
9:55 AM 84.2 °F 89.6 °F 71.6 °F 66% 30.24 in 10.0 mi SSE 4.6 mph - N/A   Clear
10:15 AM 84.2 °F 89.6 °F 71.6 °F 66% 30.24 in 10.0 mi South 3.5 mph - N/A   Clear
10:35 AM 84.2 °F 89.6 °F 71.6 °F 66% 30.25 in 10.0 mi Calm Calm - N/A   Scattered Clouds
10:55 AM 86.0 °F 91.8 °F 71.6 °F 62% 30.25 in 10.0 mi Calm Calm - N/A   Scattered Clouds
11:15 AM 84.2 °F 88.4 °F 69.8 °F 62% 30.25 in 10.0 mi ESE 3.5 mph - N/A   Scattered Clouds
11:35 AM 87.8 °F 93.8 °F 71.6 °F 58% 30.25 in 10.0 mi Calm Calm - N/A   Scattered Clouds
11:55 AM 84.2 °F 88.4 °F 69.8 °F 62% 30.24 in 10.0 mi Calm Calm - N/A   Scattered Clouds
12:15 PM 86.0 °F 91.8 °F 71.6 °F 62% 30.24 in 10.0 mi SE 3.5 mph - N/A   Scattered Clouds
12:35 PM 84.2 °F 89.6 °F 71.6 °F 66% 30.24 in 10.0 mi Calm Calm - N/A   Scattered Clouds
12:55 PM 82.4 °F 87.2 °F 71.6 °F 70% 30.24 in 7.0 mi ESE 4.6 mph - N/A Rain Rain
1:15 PM 84.2 °F 89.6 °F 71.6 °F 66% 30.24 in 10.0 mi Calm Calm - N/A   Clear
1:35 PM 87.8 °F 93.8 °F 71.6 °F 58% 30.23 in 10.0 mi South 3.5 mph - N/A   Scattered Clouds
1:55 PM 89.6 °F 96.2 °F 71.6 °F 55% 30.23 in 10.0 mi SE 3.5 mph - N/A   Clear
2:15 PM 84.2 °F 89.6 °F 71.6 °F 66% 30.22 in 10.0 mi SE 3.5 mph - N/A   Scattered Clouds
2:35 PM 86.0 °F 91.8 °F 71.6 °F 62% 30.22 in 10.0 mi Calm Calm - N/A   Scattered Clouds
2:55 PM 87.8 °F 93.8 °F 71.6 °F 58% 30.21 in 10.0 mi ESE 5.8 mph - N/A   Scattered Clouds
3:15 PM 86.0 °F 93.4 °F 73.4 °F 66% 30.21 in 10.0 mi ESE 9.2 mph - N/A   Scattered Clouds
3:35 PM 87.8 °F 93.8 °F 71.6 °F 58% 30.21 in 10.0 mi East 4.6 mph - N/A   Clear
3:55 PM 89.6 °F 94.7 °F 69.8 °F 52% 30.20 in 10.0 mi ESE 6.9 mph - N/A   Clear
4:15 PM 89.6 °F 94.7 °F 69.8 °F 52% 30.20 in 10.0 mi East 6.9 mph - N/A   Clear
4:35 PM 89.6 °F 94.7 °F 69.8 °F 52% 30.20 in 10.0 mi ESE 8.1 mph - N/A   Clear
4:55 PM 89.6 °F 96.2 °F 71.6 °F 55% 30.20 in 10.0 mi ESE 10.4 mph - N/A   Scattered Clouds
5:15 PM 84.2 °F 89.6 °F 71.6 °F 66% 30.19 in 10.0 mi ESE 3.5 mph - N/A   Scattered Clouds
5:35 PM 87.8 °F 93.8 °F 71.6 °F 58% 30.19 in 10.0 mi ESE 6.9 mph - N/A   Clear
5:55 PM 87.8 °F 93.8 °F 71.6 °F 58% 30.18 in 10.0 mi ESE 4.6 mph - N/A   Scattered Clouds
6:15 PM 84.2 °F 88.4 °F 69.8 °F 62% 30.19 in 10.0 mi SE 6.9 mph - N/A   Scattered Clouds
6:35 PM 84.2 °F 89.6 °F 71.6 °F 66% 30.20 in 10.0 mi ESE 3.5 mph - N/A   Scattered Clouds
6:55 PM 84.2 °F 89.6 °F 71.6 °F 66% 30.19 in 10.0 mi SE 5.8 mph - N/A   Clear
7:15 PM 84.2 °F 89.6 °F 71.6 °F 66% 30.19 in 10.0 mi SE 5.8 mph - N/A   Clear
7:35 PM 82.4 °F 87.2 °F 71.6 °F 70% 30.19 in 10.0 mi SE 4.6 mph - N/A   Clear
7:55 PM 82.4 °F 87.2 °F 71.6 °F 70% 30.20 in 10.0 mi Calm Calm - N/A   Clear
8:15 PM 80.6 °F 84.6 °F 71.6 °F 74% 30.20 in 10.0 mi SSE 4.6 mph - N/A   Clear
8:35 PM 78.8 °F - 71.6 °F 78% 30.20 in 10.0 mi SE 3.5 mph - N/A   Clear
8:55 PM 78.8 °F - 71.6 °F 78% 30.21 in 10.0 mi SE 4.6 mph - N/A   Clear
9:15 PM 78.8 °F - 71.6 °F 78% 30.22 in 10.0 mi SE 3.5 mph - N/A   Clear
9:35 PM 77.0 °F - 71.6 °F 83% 30.22 in 10.0 mi SE 3.5 mph - N/A   Clear
9:55 PM 77.0 °F - 73.4 °F 89% 30.22 in 10.0 mi SE 4.6 mph - N/A   Clear
10:15 PM 77.0 °F - 73.4 °F 89% 30.23 in 10.0 mi SSE 5.8 mph - N/A   Clear
10:35 PM 75.2 °F - 73.4 °F 94% 30.24 in 10.0 mi SE 4.6 mph - N/A   Clear
10:55 PM 75.2 °F - 73.4 °F 94% 30.25 in 10.0 mi SE 3.5 mph - N/A   Clear
11:15 PM 75.2 °F - 73.4 °F 94% 30.25 in 10.0 mi SE 5.8 mph - N/A   Clear
11:35 PM 75.2 °F - 71.6 °F 89% 30.26 in 10.0 mi SE 5.8 mph - N/A   Clear
11:55 PM 75.2 °F - 71.6 °F 89% 30.26 in 10.0 mi ESE 4.6 mph - N/A   Clear